TimeMDT,TemperatureF,Dew PointF,Humidity,Sea Level PressureIn,VisibilityMPH,Wind Direction,Wind SpeedMPH,Gust SpeedMPH,PrecipitationIn,Events,Conditions,WindDirDegrees,DateUTC
12:53 AM,51.1,35.1,54,30.27,10.0,NNE,3.5,-,N/A,,Clear,30,2013-05-11 06:53:00
1:53 AM,50.0,34.0,54,30.28,10.0,Calm,Calm,-,N/A,,Partly Cloudy,0,2013-05-11 07:53:00
2:53 AM,50.0,34.0,54,30.28,10.0,Calm,Calm,-,N/A,,Mostly Cloudy,0,2013-05-11 08:53:00
3:53 AM,48.0,35.1,61,30.30,10.0,Calm,Calm,-,N/A,,Overcast,0,2013-05-11 09:53:00
4:53 AM,48.0,35.1,61,30.30,10.0,Calm,Calm,-,N/A,,Scattered Clouds,0,2013-05-11 10:53:00
5:53 AM,45.0,33.1,63,30.32,10.0,Calm,Calm,-,N/A,,Mostly Cloudy,0,2013-05-11 11:53:00
6:53 AM,42.1,36.0,79,30.33,10.0,Calm,Calm,-,N/A,,Partly Cloudy,0,2013-05-11 12:53:00
7:53 AM,51.1,30.0,44,30.31,10.0,Calm,Calm,-,N/A,,Clear,0,2013-05-11 13:53:00
8:53 AM,54.0,32.0,43,30.32,10.0,Calm,Calm,-,N/A,,Clear,0,2013-05-11 14:53:00
9:53 AM,57.9,32.0,37,30.29,10.0,Calm,Calm,-,N/A,,Clear,0,2013-05-11 15:53:00
10:53 AM,63.0,32.0,31,30.26,10.0,Calm,Calm,-,N/A,,Clear,0,2013-05-11 16:53:00
11:53 AM,64.9,32.0,29,30.24,10.0,Variable,3.5,-,N/A,,Clear,0,2013-05-11 17:53:00
12:53 PM,69.1,32.0,25,30.21,10.0,Calm,Calm,-,N/A,,Clear,0,2013-05-11 18:53:00
1:53 PM,71.1,28.0,20,30.17,10.0,East,4.6,-,N/A,,Clear,90,2013-05-11 19:53:00
2:53 PM,73.0,24.1,16,30.14,10.0,North,4.6,-,N/A,,Clear,350,2013-05-11 20:53:00
3:53 PM,75.0,24.1,15,30.12,10.0,NNE,8.1,-,N/A,,Clear,30,2013-05-11 21:53:00
4:53 PM,73.0,26.1,17,30.11,10.0,North,5.8,-,N/A,,Clear,10,2013-05-11 22:53:00
5:53 PM,71.1,27.0,19,30.13,10.0,NNE,4.6,-,N/A,,Mostly Cloudy,20,2013-05-11 23:53:00
6:53 PM,72.0,30.9,22,30.11,10.0,NNE,4.6,-,N/A,,Clear,30,2013-05-12 00:53:00
7:53 PM,66.9,39.0,36,30.09,10.0,East,3.5,-,N/A,,Clear,80,2013-05-12 01:53:00
8:53 PM,57.9,34.0,41,30.10,10.0,ESE,4.6,-,N/A,,Clear,120,2013-05-12 02:53:00
9:53 PM,55.9,35.1,45,30.10,10.0,South,5.8,-,N/A,,Clear,170,2013-05-12 03:53:00
10:53 PM,57.9,35.1,42,30.08,10.0,South,8.1,-,N/A,,Partly Cloudy,170,2013-05-12 04:53:00
11:53 PM,55.0,35.1,47,30.09,10.0,South,8.1,-,N/A,,Partly Cloudy,170,2013-05-12 05:53:00